Terug naar catalogus

NATO 4A R/B

PAM-D

ActiefGTO
NORAD 21049·ROCKET BODY·🇺🇸 United States

Gelanceerd Jan 8, 1991 vanaf Cape Canaveral Space Force Station

Loading…

TLE

VerouderdSource: Space-Track

Epoch: Sep 13, 2026, 17:38 UTC

1 21049U 91001C   26256.73488120 -.00000092  00000-0  31191-2 0  9990
2 21049  25.9757 313.5262 7074974 256.9285  24.3212  2.26577476295321

Volg NATO 4A R/B in realtime met AllMySat

Download on the App Store